| time (UTC) | temp F | wind direction | speed MPH | gust MPH | rain 1hr in | rain 24hr in | rain mn in | humidity % | barometer mb |
| 20260903220019 | 74 | 220 | 2.0 | 4.0 | 0.00 | 0.00 | 0.00 | 85 | 1023.6 |
| 20260903215017 | 74 | 220 | 2.0 | 4.0 | 0.00 | 0.00 | 0.00 | 85 | 1023.5 |
| 20260903214022 | 74 | 220 | 2.0 | 3.0 | 0.00 | 0.00 | 0.00 | 85 | 1023.5 |
| 20260903213017 | 75 | 219 | 1.0 | 2.0 | 0.00 | 0.00 | 0.00 | 85 | 1023.6 |
| 20260903211018 | 74 | 219 | 1.0 | 3.0 | 0.00 | 0.00 | 0.00 | 85 | 1023.7 |
| 20260903210018 | 75 | 219 | 1.0 | 3.0 | 0.00 | 0.00 | 0.00 | 84 | 1023.6 |
| 20260903205018 | 75 | 219 | 0.0 | 2.0 | 0.00 | 0.00 | 0.00 | 84 | 1023.6 |
| 20260903203019 | 75 | 219 | 1.0 | 2.0 | 0.00 | 0.00 | 0.00 | 84 | 1023.4 |
| 20260903202018 | 76 | 219 | 1.0 | 3.0 | 0.00 | 0.00 | 0.00 | 83 | 1023.4 |
| 20260903201017 | 76 | 217 | 1.0 | 4.0 | 0.00 | 0.00 | 0.00 | 84 | 1023.3 |
| 20260903200017 | 76 | 235 | 2.0 | 4.0 | 0.00 | 0.00 | 0.00 | 83 | 1023.2 |
| 20260903195017 | 76 | 246 | 3.0 | 6.0 | 0.00 | 0.00 | 0.00 | 83 | 1023.0 |
| 20260903194026 | 76 | 249 | 3.0 | 7.0 | 0.00 | 0.00 | 0.00 | 83 | 1023.0 |
| 20260903192019 | 76 | 244 | 4.0 | 7.0 | 0.00 | 0.00 | 0.00 | 82 | 1022.8 |
| 20260903191018 | 76 | 251 | 3.0 | 7.0 | 0.00 | 0.00 | 0.00 | 82 | 1022.7 |
| 20260903190018 | 77 | 243 | 4.0 | 7.0 | 0.00 | 0.00 | 0.00 | 82 | 1022.6 |
| 20260903185017 | 77 | 244 | 5.0 | 10.0 | 0.00 | 0.00 | 0.00 | 81 | 1022.6 |
| 20260903184017 | 77 | 243 | 4.0 | 8.0 | 0.00 | 0.00 | 0.00 | 81 | 1022.5 |
| 20260903183016 | 77 | 233 | 4.0 | 10.0 | 0.00 | 0.00 | 0.00 | 80 | 1022.5 |
| 20260903182016 | 78 | 234 | 5.0 | 9.0 | 0.00 | 0.00 | 0.00 | 80 | 1022.5 |
| 20260903181017 | 78 | 225 | 5.0 | 10.0 | 0.00 | 0.00 | 0.00 | 80 | 1022.6 |
| 20260903175016 | 79 | 221 | 6.0 | 10.0 | 0.00 | 0.00 | 0.00 | 79 | 1022.7 |
| 20260903173016 | 80 | 216 | 5.0 | 9.0 | 0.00 | 0.00 | 0.00 | 79 | 1022.7 |
| 20260903172016 | 80 | 216 | 5.0 | 10.0 | 0.00 | 0.00 | 0.00 | 78 | 1022.6 |
| 20260903164018 | 81 | 200 | 7.0 | 14.0 | 0.00 | 0.00 | 0.00 | 77 | 1022.7 |
| 20260903161016 | 81 | 197 | 6.0 | 12.0 | 0.00 | 0.00 | 0.00 | 77 | 1022.7 |
| 20260903160018 | 81 | 216 | 6.0 | 11.0 | 0.00 | 0.00 | 0.00 | 76 | 1022.8 |
| 20260903155017 | 82 | 196 | 6.0 | 12.0 | 0.00 | 0.00 | 0.00 | 74 | 1023.0 |
| 20260903154016 | 82 | 212 | 5.0 | 11.0 | 0.00 | 0.00 | 0.00 | 75 | 1022.9 |
| 20260903153016 | 82 | 222 | 5.0 | 11.0 | 0.00 | 0.00 | 0.00 | 74 | 1023.0 |
| 20260903152016 | 82 | 229 | 6.0 | 10.0 | 0.00 | 0.00 | 0.00 | 75 | 1023.1 |
| 20260903150018 | 83 | 216 | 6.0 | 12.0 | 0.00 | 0.00 | 0.00 | 75 | 1023.1 |
| 20260903145018 | 83 | 199 | 7.0 | 13.0 | 0.00 | 0.00 | 0.00 | 74 | 1023.1 |
| 20260903144017 | 83 | 198 | 7.0 | 12.0 | 0.00 | 0.00 | 0.00 | 73 | 1023.1 |
| 20260903143017 | 83 | 192 | 7.0 | 14.0 | 0.00 | 0.00 | 0.00 | 71 | 1023.2 |
| 20260903141017 | 83 | 184 | 8.0 | 14.0 | 0.00 | 0.00 | 0.00 | 71 | 1023.1 |
| 20260903140018 | 84 | 199 | 8.0 | 16.0 | 0.00 | 0.00 | 0.00 | 71 | 1023.0 |
| 20260903134021 | 83 | 185 | 8.0 | 12.0 | 0.00 | 0.00 | 0.00 | 70 | 1023.1 |
| 20260903133018 | 83 | 206 | 7.0 | 17.0 | 0.00 | 0.00 | 0.00 | 71 | 1023.2 |
| 20260903132018 | 84 | 199 | 7.0 | 15.0 | 0.00 | 0.00 | 0.00 | 69 | 1023.3 |
| 20260903131017 | 83 | 191 | 7.0 | 14.0 | 0.00 | 0.00 | 0.00 | 70 | 1023.4 |
| 20260903130019 | 83 | 181 | 8.0 | 15.0 | 0.00 | 0.00 | 0.00 | 70 | 1023.4 |
| 20260903125016 | 84 | 189 | 8.0 | 17.0 | 0.00 | 0.00 | 0.00 | 72 | 1023.4 |
| 20260903124018 | 84 | 198 | 6.0 | 12.0 | 0.00 | 0.00 | 0.00 | 70 | 1023.5 |
| 20260903123016 | 84 | 200 | 6.0 | 12.0 | 0.00 | 0.00 | 0.00 | 70 | 1023.5 |
| 20260903122018 | 84 | 203 | 4.0 | 10.0 | 0.00 | 0.00 | 0.00 | 71 | 1023.4 |
| 20260903120019 | 84 | 173 | 6.0 | 11.0 | 0.00 | 0.00 | 0.00 | 72 | 1023.5 |
| 20260903115017 | 83 | 162 | 6.0 | 12.0 | 0.00 | 0.00 | 0.00 | 73 | 1023.7 |
| 20260903114022 | 83 | 174 | 7.0 | 13.0 | 0.00 | 0.00 | 0.00 | 73 | 1023.7 |
| 20260903113016 | 83 | 166 | 7.0 | 12.0 | 0.00 | 0.00 | 0.00 | 72 | 1023.7 |
| 20260903112021 | 84 | 178 | 6.0 | 12.0 | 0.00 | 0.00 | 0.00 | 72 | 1023.7 |
| 20260903111020 | 84 | 170 | 6.0 | 12.0 | 0.00 | 0.00 | 0.00 | 69 | 1023.8 |
| 20260903110019 | 84 | 190 | 6.0 | 11.0 | 0.00 | 0.00 | 0.00 | 68 | 1024.0 |
| 20260903105019 | 84 | 163 | 4.0 | 10.0 | 0.00 | 0.00 | 0.00 | 66 | 1023.9 |
| 20260903104021 | 84 | 149 | 6.0 | 12.0 | 0.00 | 0.00 | 0.00 | 67 | 1023.9 |
| 20260903103017 | 84 | 173 | 4.0 | 9.0 | 0.00 | 0.00 | 0.00 | 66 | 1024.0 |
| 20260903102017 | 84 | 167 | 5.0 | 12.0 | 0.00 | 0.00 | 0.00 | 64 | 1024.0 |
| 20260903101019 | 84 | 169 | 5.0 | 9.0 | 0.00 | 0.00 | 0.00 | 65 | 1024.1 |
| 20260903100019 | 84 | 136 | 3.0 | 7.0 | 0.00 | 0.00 | 0.00 | 62 | 1024.1 |
| 20260903095016 | 84 | 139 | 4.0 | 9.0 | 0.00 | 0.00 | 0.00 | 62 | 1024.1 |
| 20260903094017 | 83 | 167 | 5.0 | 10.0 | 0.00 | 0.00 | 0.00 | 61 | 1024.2 |
| 20260903093017 | 84 | 162 | 4.0 | 9.0 | 0.00 | 0.00 | 0.00 | 61 | 1024.1 |
| 20260903092016 | 83 | 177 | 3.0 | 9.0 | 0.00 | 0.00 | 0.00 | 61 | 1024.1 |
| 20260903091018 | 83 | 174 | 4.0 | 9.0 | 0.00 | 0.00 | 0.00 | 60 | 1024.2 |
| 20260903090024 | 83 | 172 | 3.0 | 6.0 | 0.00 | 0.00 | 0.00 | 60 | 1024.2 |
| 20260903085018 | 82 | 158 | 3.0 | 8.0 | 0.00 | 0.00 | 0.00 | 62 | 1024.1 |
| 20260903084018 | 82 | 178 | 3.0 | 8.0 | 0.00 | 0.00 | 0.00 | 63 | 1024.0 |
| 20260903082016 | 82 | 170 | 3.0 | 6.0 | 0.00 | 0.00 | 0.00 | 62 | 1024.0 |
| 20260903081019 | 82 | 139 | 1.0 | 4.0 | 0.00 | 0.00 | 0.00 | 61 | 1024.0 |
| 20260903080020 | 81 | 154 | 2.0 | 5.0 | 0.00 | 0.00 | 0.00 | 63 | 1023.9 |
| 20260903075016 | 82 | 175 | 2.0 | 4.0 | 0.00 | 0.00 | 0.00 | 64 | 1024.0 |
| 20260903074026 | 81 | 326 | 1.0 | 4.0 | 0.00 | 0.00 | 0.00 | 64 | 1023.9 |
| 20260903072019 | 80 | 326 | 1.0 | 3.0 | 0.00 | 0.00 | 0.00 | 66 | 1023.8 |
| 20260903070016 | 77 | 326 | 1.0 | 2.0 | 0.00 | 0.00 | 0.00 | 69 | 1023.6 |
| 20260903065015 | 75 | 326 | 0.0 | 2.0 | 0.00 | 0.00 | 0.00 | 72 | 1023.6 |
| 20260903063022 | 73 | 326 | 2.0 | 3.0 | 0.00 | 0.00 | 0.00 | 73 | 1023.5 |
| 20260903061017 | 72 | 326 | 3.0 | 4.0 | 0.00 | 0.00 | 0.00 | 75 | 1023.3 |
| 20260903060019 | 71 | 326 | 4.0 | 7.0 | 0.00 | 0.00 | 0.00 | 76 | 1023.1 |
| 20260903055018 | 71 | 326 | 3.0 | 5.0 | 0.00 | 0.00 | 0.00 | 76 | 1023.2 |
| 20260903053017 | 70 | 325 | 3.0 | 7.0 | 0.00 | 0.00 | 0.00 | 74 | 1023.0 |
| 20260903052016 | 70 | 324 | 3.0 | 5.0 | 0.00 | 0.00 | 0.00 | 74 | 1023.0 |
| 20260903051017 | 70 | 324 | 3.0 | 4.0 | 0.00 | 0.00 | 0.00 | 75 | 1022.9 |
| 20260903045016 | 70 | 324 | 3.0 | 5.0 | 0.00 | 0.00 | 0.00 | 74 | 1022.9 |
| 20260903043018 | 70 | 324 | 2.0 | 4.0 | 0.00 | 0.00 | 0.00 | 75 | 1022.8 |
| 20260903042020 | 70 | 324 | 3.0 | 4.0 | 0.00 | 0.00 | 0.00 | 76 | 1022.8 |
| 20260903041016 | 70 | 324 | 2.0 | 4.0 | 0.00 | 0.00 | 0.00 | 78 | 1022.9 |
| 20260903040017 | 71 | 324 | 3.0 | 4.0 | 0.00 | 0.00 | 0.00 | 79 | 1022.9 |
| 20260903035017 | 71 | 324 | 3.0 | 5.0 | 0.00 | 0.00 | 0.00 | 78 | 1023.0 |
| 20260903033015 | 70 | 342 | 4.0 | 5.0 | 0.00 | 0.00 | 0.00 | 78 | 1023.0 |
| 20260903032016 | 70 | 342 | 3.0 | 5.0 | 0.00 | 0.00 | 0.00 | 78 | 1023.0 |
| 20260903031016 | 70 | 342 | 3.0 | 4.0 | 0.00 | 0.00 | 0.00 | 78 | 1023.0 |
| 20260903030017 | 70 | 341 | 3.0 | 4.0 | 0.00 | 0.00 | 0.00 | 79 | 1023.0 |
| 20260903024017 | 70 | 342 | 2.0 | 3.0 | 0.00 | 0.00 | 0.00 | 79 | 1023.0 |
| 20260903021016 | 71 | 341 | 3.0 | 5.0 | 0.00 | 0.00 | 0.00 | 81 | 1022.9 |
| 20260903020017 | 71 | 337 | 3.0 | 5.0 | 0.00 | 0.00 | 0.00 | 81 | 1022.9 |
| 20260903015016 | 71 | 322 | 3.0 | 5.0 | 0.00 | 0.00 | 0.00 | 81 | 1023.0 |
| 20260903014016 | 71 | 320 | 2.0 | 4.0 | 0.00 | 0.00 | 0.00 | 81 | 1022.9 |
| 20260903013017 | 71 | 320 | 3.0 | 5.0 | 0.00 | 0.00 | 0.00 | 81 | 1023.0 |
| 20260903012017 | 71 | 321 | 4.0 | 7.0 | 0.00 | 0.00 | 0.00 | 81 | 1023.2 |
| 20260903011015 | 71 | 320 | 3.0 | 5.0 | 0.00 | 0.00 | 0.00 | 80 | 1023.3 |
| 20260903010016 | 71 | 326 | 4.0 | 7.0 | 0.00 | 0.00 | 0.00 | 80 | 1023.4 |
| 20260903005015 | 71 | 335 | 3.0 | 5.0 | 0.00 | 0.00 | 0.00 | 81 | 1023.3 |
| 20260903004017 | 71 | 342 | 3.0 | 5.0 | 0.00 | 0.00 | 0.00 | 81 | 1023.4 |
| 20260903003015 | 71 | 342 | 3.0 | 5.0 | 0.00 | 0.00 | 0.00 | 81 | 1023.3 |
| 20260903002015 | 71 | 342 | 3.0 | 5.0 | 0.00 | 0.00 | 0.00 | 80 | 1023.3 |
| 20260903001016 | 71 | 342 | 2.0 | 4.0 | 0.00 | 0.00 | 0.00 | 80 | 1023.3 |
| 20260903000021 | 71 | 342 | 3.0 | 4.0 | 0.00 | 0.00 | 0.00 | 80 | 1023.4 |
| 20260902235017 | 71 | 342 | 3.0 | 4.0 | 0.00 | 0.00 | 0.00 | 80 | 1023.3 |
| 20260902234015 | 71 | 342 | 3.0 | 5.0 | 0.00 | 0.00 | 0.00 | 80 | 1023.3 |
| 20260902232019 | 71 | 342 | 3.0 | 4.0 | 0.00 | 0.00 | 0.00 | 81 | 1023.4 |
| 20260902231015 | 71 | 342 | 3.0 | 4.0 | 0.00 | 0.00 | 0.00 | 83 | 1023.3 |
| 20260902230016 | 71 | 342 | 3.0 | 4.0 | 0.00 | 0.00 | 0.00 | 83 | 1023.3 |
| 20260902225015 | 71 | 342 | 2.0 | 4.0 | 0.00 | 0.00 | 0.00 | 84 | 1023.2 |
| 20260902224020 | 71 | 342 | 3.0 | 4.0 | 0.00 | 0.00 | 0.00 | 84 | 1023.3 |
| 20260902223017 | 71 | 342 | 3.0 | 4.0 | 0.00 | 0.00 | 0.00 | 84 | 1023.2 |